Flag for U.S.A. Weather past 2 weeks in Philadelphia, Pennsylvania, U.S.A.

45 °F

Light rain. Fog.

Feels Like: 41 °F
Forecast: 45 / 55 °F
Wind: 8 mph from Northeast

Location: Philadelphia International Airport

Current Time: Dec 1, 2015 at 1:25:07 AM

Latest Report: Dec 1, 2015 at 12:58 AM

Visibility: 2 mi

Pressure: 30.24 "Hg

Humidity: 90%

Dew point: 42 °F

Location of PhiladelphiaLocation

Historic Weather in Philadelphia — Graph


Philadelphia temperature yesterday

Maximum temperature yesterday: 47 °F (at 5:54 PM)
Minimum temperature yesterday: 37 °F (at 3:54 AM)
Average temperature yesterday: 42 °F

Past Weeks' High & Low Weather Summary

High69 °F (Nov 16, 12:54 PM)93% (Nov 27, 7:01 AM)30.81 "Hg (Nov 27, 7:01 AM)
Low33 °F (Nov 25, 4:54 AM)20% (Nov 20, 2:54 PM)29.88 "Hg (Nov 22, 12:54 AM)
Average49 °F60%30.31 "Hg
* Reported Nov 16 12:54 AM — Dec 1 12:01 AM, Philadelphia, Weather by CustomWeather, © 2015

Note: Actual official high and low records may vary slightly from our data, if they occured in-between our weather recording intervals... More about our weather records


Philadelphia weather history for previous 24 hours

Time TempWeatherWind HumidityBarometerVisibility
12:01 AM
Tue, Dec 1
45 °FLight rain. Fog.10 mph86%30.26 "Hg6 mi
10:54 PM
Mon, Nov 30
45 °FLight rain. Overcast.10 mph82%30.28 "Hg7 mi
9:59 PM45 °FLight rain. Overcast.10 mph80%30.30 "Hg6 mi
8:54 PM46 °FLight rain. Overcast.8 mph73%30.31 "Hg10 mi
7:54 PM47 °FLight rain. Overcast.7 mph69%30.32 "Hg10 mi
6:54 PM46 °FOvercast.8 mph68%30.33 "Hg10 mi
5:54 PM47 °FOvercast.9 mph66%30.34 "Hg10 mi
4:54 PM46 °FLight rain. Overcast.9 mph71%30.33 "Hg10 mi
3:54 PM46 °FOvercast.10 mph63%30.34 "Hg10 mi
2:54 PM46 °FMostly cloudy.12 mph63%30.34 "Hg10 mi
1:54 PM45 °FMostly cloudy.14 mph63%30.35 "Hg10 mi
12:54 PM45 °FMostly cloudy.12 mph60%30.37 "Hg10 mi
11:54 AM44 °FPartly sunny.12 mph60%30.39 "Hg10 mi
10:54 AM44 °FPartly sunny.13 mph58%30.41 "Hg10 mi
10:01 AM41 °FBroken clouds.10 mph60%30.42 "Hg10 mi
8:54 AM39 °FPartly sunny.10 mph60%30.42 "Hg10 mi
7:54 AM37 °FBroken clouds.12 mph60%30.41 "Hg10 mi
6:54 AM37 °FPartly cloudy.13 mph60%30.40 "Hg10 mi
5:54 AM37 °FMostly cloudy.14 mph60%30.40 "Hg10 mi
4:54 AM37 °FHigh level clouds.13 mph60%30.38 "Hg10 mi
3:54 AM37 °FHigh level clouds.10 mph57%30.37 "Hg10 mi
2:54 AM38 °FHigh level clouds.15 mph55%30.39 "Hg10 mi
1:54 AM38 °FMostly cloudy.16 mph55%30.38 "Hg10 mi
Weather by CustomWeather, © 2015

See weather overviewHow to use our weather pages